Dewpoint
11 12 13 12 12 10 9 9 9 10 9 9 10 11 11 11 10 12 11 10 11 9 9 10 10 10 10 11 11 11 12 13 15 16 18 19 21 22 24 25 29 32 33 33 33 33 33 32 32 33 33 33 33 33 33 30 26 26 29 31 30 29 26 25 24 25 18 10 7 6 8 13 14 16 17 17 17 21 25 18 18 20 21 21 21
10 11 11 12 10 9 9 9 9 9 8 8 10 10 10 10 11 11 9 9 9 8 9 10 9 9 9 9 9 10 10 11 14 15 16 16 18 21 22 23 23 26 31 32 32 33 32 32 32 32 32 32 32 33 33 33 32 29 25 26 27 30 29 28 27 27 27 15 8 6 8 13 12 16 16 17 17 19 21 19 18 19 19 20 20
10 10 10 9 9 9 8 8 8 8 8 8 9 9 9 10 11 11 10 9 8 8 9 9 9 8 7 8 8 8 8 10 12 13 14 15 17 18 20 22 23 24 26 30 32 32 32 32 32 32 32 32 32 32 32 32 33 32 30 29 26 25 26 28 28 28 28 24 11 6 7 11 11 14 17 17 18 18 19 20 18 18 19 19 19
8 9 9 9 9 9 9 8 8 8 8 9 9 9 9 10 11 10 10 9 8 8 8 8 7 7 6 6 7 7 7 9 10 12 12 13 15 16 18 21 23 24 24 26 30 31 31 31 32 32 32 32 32 32 32 32 32 32 32 32 30 27 24 25 28 29 29 29 16 12 8 9 12 12 16 17 18 18 19 20 20 20 19 19 19
8 8 9 9 9 9 9 9 8 8 8 8 9 9 9 10 10 10 10 8 8 9 8 7 6 6 6 6 6 6 7 8 9 10 11 12 13 15 18 20 22 23 24 25 28 30 31 31 31 31 32 31 31 31 31 32 32 32 32 32 32 31 29 26 25 26 27 28 25 15 10 10 11 11 16 16 17 18 21 22 22 20 19 19 18
7 8 8 8 8 9 9 9 9 8 8 8 8 9 9 9 9 9 9 8 8 9 8 7 7 6 6 6 6 6 7 7 8 9 10 12 12 14 18 20 21 23 24 24 25 28 30 31 31 31 31 31 31 31 31 31 31 31 31 32 32 32 31 30 27 26 26 26 25 19 11 11 10 10 14 16 15 16 19 22 22 23 22 20 19
6 7 7 8 8 9 9 9 9 9 8 8 9 8 8 8 8 8 8 8 9 8 8 7 7 6 6 6 6 6 7 7 8 9 11 12 13 14 15 18 20 22 23 24 24 26 28 30 30 31 31 31 30 30 31 31 31 31 31 31 32 32 31 31 29 28 26 25 24 20 13 11 11 11 10 15 15 15 15 17 17 18 20 20 18
6 6 7 8 8 9 9 9 10 10 9 9 9 9 8 8 7 8 7 8 8 7 6 6 7 6 6 6 6 6 7 7 8 9 10 11 12 13 15 17 19 22 23 24 24 25 26 29 29 30 30 31 31 30 30 30 30 30 30 31 31 30 30 30 30 29 27 26 25 22 18 13 12 14 9 12 12 10 14 15 16 15 15 17 18
6 6 6 7 7 8 9 9 9 10 10 9 8 8 8 7 7 7 6 7 7 7 6 6 5 5 5 6 6 6 6 6 7 8 9 10 12 14 15 17 20 21 22 23 24 24 25 27 29 29 29 30 31 30 30 30 30 29 29 30 29 29 29 28 28 28 27 27 26 24 20 17 13 10 8 10 11 11 11 13 14 15 15 14 14
5 5 5 6 6 7 8 8 8 8 8 8 8 8 8 8 7 6 6 6 4 4 3 4 3 4 4 5 5 5 5 6 8 9 13 13 14 16 16 17 19 20 21 21 23 24 25 26 27 29 28 28 29 30 30 30 30 30 29 29 29 28 28 27 26 26 26 25 25 23 21 20 16 12 9 9 9 9 10 12 12 12 13 12 10
4 4 5 5 6 7 7 7 7 7 7 8 9 9 8 8 7 6 6 4 3 3 3 4 3 4 3 4 4 4 5 5 8 15 17 18 16 15 16 16 19 20 20 20 21 23 24 25 26 27 28 28 28 28 29 29 30 30 29 28 28 28 27 26 25 25 24 23 23 22 21 21 18 14 10 7 7 8 9 11 12 12 12 11 10
4 4 5 6 6 6 6 7 7 8 8 8 9 8 8 8 7 7 5 4 5 4 4 4 3 2 3 3 3 4 4 7 13 15 17 18 18 15 16 17 18 19 19 19 19 21 23 24 25 26 27 27 28 28 28 28 28 29 28 28 28 28 28 26 25 23 23 22 21 20 20 20 19 18 17 13 9 9 11 12 12 11 11 11 11
5 5 5 5 6 6 7 7 8 8 9 9 8 8 7 7 7 6 6 5 4 4 5 4 3 3 2 2 3 3 3 8 13 15 16 18 19 18 16 17 18 18 18 18 18 19 20 22 23 25 26 28 28 27 27 27 28 28 28 27 27 27 27 27 27 24 23 22 21 20 20 20 19 19 20 18 16 13 13 12 13 12 13 11 11
7 6 6 5 6 6 7 8 9 9 9 8 8 8 7 7 8 7 6 6 5 5 4 3 3 2 2 1 2 3 3 5 12 15 16 18 18 18 15 17 17 17 17 17 17 18 18 19 21 23 23 25 26 26 26 26 27 27 27 26 26 26 27 27 27 27 25 23 23 21 23 22 20 21 22 23 18 16 15 13 15 14 14 13 12
7 6 6 6 6 7 7 8 8 8 9 9 9 9 9 9 8 8 7 6 6 5 4 2 2 2 2 1 2 2 2 8 13 14 16 17 18 17 15 16 16 16 15 15 16 17 17 18 19 20 20 21 22 24 25 25 26 26 26 25 25 25 25 26 26 26 25 24 24 24 23 23 23 23 23 24 22 21 20 18 18 16 17 15 14
7 6 6 6 6 7 8 8 9 9 9 9 9 8 8 7 5 5 5 6 6 5 4 2 2 1 1 1 1 1 1 10 12 14 15 17 17 13 14 14 14 14 12 13 15 16 17 17 18 18 18 19 23 24 24 23 24 25 25 25 25 25 25 26 27 27 26 25 24 24 23 23 25 23 24 23 23 22 21 19 18 17 15 14 12
6 6 6 6 8 8 7 6 6 7 7 7 7 6 5 4 5 5 6 6 6 5 3 2 2 1 1 0 -0 0 1 7 11 13 14 16 15 12 13 13 13 13 11 11 14 15 16 17 16 17 17 18 22 23 24 24 22 23 23 23 24 24 24 25 28 28 28 27 27 27 27 27 27 27 27 26 23 21 18 16 15 15 14 12 11
6 7 7 6 5 5 4 4 4 5 5 5 5 5 5 6 6 6 5 5 4 4 2 2 1 1 0 -0 0 1 2 6 11 13 13 14 13 11 12 12 11 12 11 11 12 14 16 18 18 16 16 18 22 22 22 23 20 21 21 20 20 21 21 24 25 27 28 28 27 27 27 26 26 26 26 26 25 22 18 16 15 14 13 13 10
6 4 3 3 3 3 4 5 6 6 7 7 6 4 4 4 4 4 4 4 3 2 1 0 0 0 -0 -0 2 2 2 3 7 11 12 13 11 10 11 11 10 10 10 10 10 11 12 13 17 18 18 20 21 21 21 22 18 19 20 19 18 18 19 21 21 21 21 23 24 26 25 26 25 25 24 25 24 22 18 16 15 14 12 11 10
2 2 2 3 4 5 6 6 5 5 5 5 5 4 4 3 3 2 2 2 1 0 -1 -1 -2 -1 -1 -1 0 1 1 2 4 11 12 13 13 10 10 10 9 8 6 6 8 7 8 10 12 15 19 19 20 21 21 21 17 17 18 18 17 16 19 19 20 20 19 19 19 20 20 21 22 22 23 24 22 19 17 16 15 14 13 11 11
1 3 5 5 4 3 2 2 2 2 2 3 3 3 2 1 1 0 0 -0 -1 -2 -3 -3 -3 -3 -2 -2 -1 0 1 1 2 10 12 13 13 11 9 10 9 6 3 3 3 6 5 7 9 12 14 16 18 19 20 21 19 15 15 14 15 18 19 18 19 19 17 17 16 16 17 17 18 19 19 20 20 20 19 17 15 15 14 13 11
4 5 3 1 0 0 -0 0 1 1 2 2 1 0 -0 -1 -2 -2 -3 -3 -3 -3 -5 -4 -3 -3 -3 -2 -1 -0 2 4 3 7 11 12 12 12 9 9 10 5 3 2 3 5 4 6 7 11 12 13 15 18 19 20 20 15 16 20 21 21 17 16 15 15 15 15 15 14 14 14 15 15 16 17 18 19 19 18 17 15 13 14 13
3 0 -1 -1 -1 -2 -1 -2 -1 -1 -0 0 -1 -1 -2 -3 -3 -3 -4 -4 -5 -5 -6 -5 -4 -4 -3 -2 -1 1 2 3 5 5 8 11 12 12 11 11 14 9 5 3 4 5 4 6 9 10 10 9 13 14 15 18 17 16 18 19 20 19 16 13 13 12 12 12 12 12 12 13 13 13 13 13 14 15 15 16 15 15 14 14 13
-1 -2 -2 -3 -4 -3 -3 -3 -3 -3 -2 -2 -2 -2 -3 -3 -2 -2 -4 -6 -5 -5 -5 -4 -3 -3 -3 -3 -1 1 2 2 4 6 6 9 10 11 12 12 13 9 6 5 3 4 4 4 8 12 15 14 11 17 18 16 16 20 20 19 18 16 13 12 11 10 9 8 8 9 9 10 11 11 11 11 11 11 12 12 12 12 12 11 11
-4 -4 -5 -6 -5 -6 -5 -4 -4 -4 -3 -1 -1 -3 -3 -2 -2 -2 -4 -5 -6 -5 -4 -4 -4 -4 -3 -3 -2 -1 1 1 2 4 6 6 8 10 13 12 12 10 5 3 4 3 9 11 12 15 15 15 14 12 10 11 12 11 11 12 12 10 11 10 10 9 7 6 6 6 6 5 6 8 10 9 9 9 8 7 7 7 6 5 4
-5 -6 -7 -6 -6 -6 -7 -6 -5 -4 -3 -1 -1 -3 -2 -2 -3 -4 -5 -4 -4 -4 -4 -4 -4 -4 -4 -3 -2 -1 -0 0 1 1 4 5 6 7 10 9 9 8 7 6 8 9 11 13 10 9 8 7 6 5 5 6 7 7 7 5 3 5 7 9 7 7 5 5 5 4 2 3 4 5 6 6 6 5 5 4 4 4 5 4 2
-5 -6 -7 -7 -7 -7 -7 -6 -4 -3 -3 -4 -4 -4 -4 -6 -6 -5 -4 -4 -4 -4 -4 -4 -4 -4 -4 -4 -3 -2 -1 0 1 0 0 -1 0 3 5 7 8 7 4 4 6 5 6 6 6 7 7 7 5 5 3 2 -1 -1 -1 -0 -1 -2 -1 2 5 5 3 1 0 -0 0 1 0 4 3 2 -0 -2 2 2 2 -0 1 1 -0
-5 -7 -7 -7 -6 -6 -6 -4 -4 -4 -3 -4 -5 -5 -6 -7 -7 -7 -6 -5 -4 -4 -5 -5 -5 -5 -5 -5 -4 -3 -2 -0 -0 -0 -0 -2 -1 1 2 2 1 -0 -0 0 0 2 0 3 1 -3 -2 -3 -3 -4 -6 -6 -5 -5 -5 -5 -4 -2 2 1 -1 -4 -5 -3 -3 -3 -4 -3 -3 -3 -2 -2 -5 -8 -6 -4 -7 -7 -7 -7 -8
-4 -7 -7 -6 -7 -5 -5 -5 -5 -4 -5 -5 -5 -5 -5 -5 -6 -5 -5 -3 -2 -2 -3 -3 -3 -3 -3 -4 -4 -4 -3 -1 -0 5 4 5 3 -1 -0 -1 -2 -0 3 3 0 -1 -2 -3 -4 -4 -5 -6 -7 -8 -8 -7 -8 -9 -10 -9 -10 -11 -12 -10 -7 -11 -9 -3 -3 -3 -5 -5 -8 -7 -5 -6 -9 -11 -11 -6 -9 -7 -15 -12 -10
-5 -6 -6 -6 -6 -6 -6 -6 -6 -5 -5 -6 -5 -5 -3 -1 -1 -2 -3 -1 -1 -0 1 -1 1 0 -1 -1 -2 -3 -3 -2 6 8 9 8 6 6 6 6 6 3 5 4 2 -3 -6 -5 -7 -7 -7 -7 -7 -8 -9 -8 -8 -7 -8 -4 -10 -10 -12 -14 -14 -13 -12 -11 -11 -8 -11 -10 -11 -10 -8 -9 -12 -11 -10 -5 -15 -16 -16 -16 -12
-4 -5 -6 -7 -7 -6 -6 -6 -6 -6 -5 -6 -6 -5 -5 -4 -1 -1 -2 -2 -2 0 3 5 6 5 3 2 2 4 5 6 7 8 8 9 9 7 8 7 5 6 6 4 -1 -4 -6 -5 -5 -6 -6 -8 -8 -9 -9 -8 -9 -8 -10 -11 -12 -11 -12 -12 -14 -12 -12 -13 -14 -15 -14 -11 -13 -14 -10 -14 -12 -16 -13 -16 -15 -15 -13 -13 -15
-6 -7 -8 -9 -8 -7 -7 -6 -6 -6 -6 -6 -6 -6 -6 -6 -7 -5 -3 -3 -2 -0 2 4 5 6 5 5 5 3 6 6 6 7 6 8 5 5 5 6 5 5 7 5 -2 -4 -4 -4 -7 -7 -8 -8 -9 -10 -9 -8 -9 -8 -10 -10 -13 -14 -12 -13 -15 -13 -15 -14 -16 -15 -16 -16 -15 -15 -14 -15 -15 -16 -17 -17 -16 -15 -18 -16 -18
-10 -11 -10 -10 -8 -7 -7 -7 -6 -6 -7 -6 -6 -6 -6 -7 -8 -8 -7 -3 -2 -3 -1 1 2 2 3 5 8 7 6 5 5 6 4 6 3 2 2 4 5 4 6 -0 -4 -8 -9 -9 -9 -8 -7 -8 -10 -9 -10 -9 -9 -10 -9 -10 -12 -16 -15 -14 -15 -13 -16 -17 -15 -17 -17 -17 -16 -15 -15 -16 -16 -20 -20 -19 -21 -18 -17 -17 -20
-12 -11 -10 -10 -9 -9 -8 -8 -8 -7 -7 -6 -6 -6 -6 -7 -7 -8 -9 -9 -9 -7 -6 -5 -4 -3 -3 -1 2 2 4 5 4 3 4 5 5 3 2 2 6 5 2 -6 -6 -10 -12 -12 -12 -12 -11 -12 -13 -12 -12 -13 -12 -13 -14 -14 -15 -18 -20 -19 -13 -16 -17 -17 -16 -18 -19 -20 -18 -17 -22 -22 -23 -21 -20 -22 -21 -20 -23 -21 -22
-12 -10 -10 -8 -9 -8 -8 -8 -9 -9 -8 -8 -7 -7 -6 -7 -7 -8 -9 -10 -10 -11 -10 -9 -7 -5 -6 -4 -2 -1 -1 -1 0 0 1 5 3 2 5 -2 -5 -7 -9 -11 -10 -10 -12 -12 -13 -14 -12 -12 -13 -13 -13 -16 -15 -15 -15 -16 -20 -20 -19 -17 -19 -21 -18 -19 -19 -21 -22 -21 -23 -21 -19 -20 -23 -23 -25 -25 -25 -22 -23 -26 -24
-12 -12 -13 -11 -10 -9 -11 -11 -10 -10 -10 -10 -9 -8 -7 -7 -8 -8 -9 -9 -10 -10 -11 -10 -9 -6 -6 -5 -4 -3 -3 -2 -2 -1 2 3 1 1 -4 -7 -9 -12 -12 -15 -15 -15 -15 -15 -15 -17 -18 -17 -16 -16 -17 -16 -17 -16 -16 -16 -17 -19 -19 -20 -21 -23 -24 -21 -23 -21 -21 -25 -23 -25 -26 -24 -25 -23 -26 -25 -26 -26 -26 -26 -28
-12 -13 -12 -12 -13 -14 -14 -14 -13 -12 -11 -11 -11 -10 -9 -8 -8 -9 -10 -10 -10 -11 -11 -11 -10 -10 -8 -9 -7 -6 -4 -4 -2 -1 0 1 2 -3 -4 -6 -8 -13 -14 -16 -17 -17 -17 -19 -19 -19 -20 -18 -19 -18 -19 -20 -21 -20 -16 -20 -19 -19 -21 -22 -22 -22 -23 -24 -28 -26 -27 -29 -26 -26 -21 -25 -29 -28 -28 -26 -25 -24 -25 -24 -23
-13 -12 -12 -12 -13 -15 -16 -15 -13 -12 -13 -13 -13 -12 -10 -10 -10 -10 -10 -11 -11 -11 -11 -11 -8 -11 -11 -11 -8 -7 -10 -6 -5 -6 -6 -6 -13 -14 -15 -16 -15 -13 -14 -17 -16 -16 -17 -21 -23 -20 -23 -21 -21 -24 -22 -23 -22 -19 -20 -23 -24 -23 -15 -18 -22 -25 -26 -26 -29 -30 -29 -31 -31 -29 -25 -24 -25 -28 -27 -26 -24 -26 -28 -27 -29
-13 -10 -10 -11 -11 -13 -14 -14 -14 -15 -15 -15 -15 -13 -12 -11 -11 -11 -11 -11 -11 -11 -12 -12 -12 -12 -11 -11 -12 -11 -10 -15 -16 -15 -15 -17 -19 -20 -20 -20 -20 -21 -21 -20 -19 -20 -19 -21 -24 -25 -25 -24 -23 -24 -23 -24 -25 -24 -23 -23 -21 -21 -23 -28 -26 -27 -27 -28 -32 -33 -30 -35 -35 -32 -29 -27 -30 -29 -29 -29 -30 -29 -30 -32 -34
-14 -16 -14 -13 -14 -13 -14 -14 -15 -16 -16 -16 -15 -14 -13 -12 -12 -12 -11 -12 -12 -12 -12 -12 -12 -12 -11 -14 -14 -15 -14 -13 -15 -16 -17 -18 -19 -20 -22 -21 -22 -21 -22 -24 -22 -22 -22 -22 -23 -22 -25 -26 -24 -25 -26 -24 -24 -25 -24 -22 -22 -26 -28 -28 -27 -26 -28 -31 -30 -34 -30 -33 -35 -33 -33 -31 -30 -32 -30 -31 -33 -33 -32 -33 -32
-19 -18 -15 -14 -14 -15 -16 -16 -17 -18 -17 -16 -15 -14 -13 -12 -12 -12 -12 -12 -12 -12 -12 -12 -12 -11 -11 -9 -7 -8 -12 -13 -14 -17 -17 -17 -19 -20 -23 -24 -23 -24 -24 -24 -25 -24 -22 -23 -25 -25 -26 -27 -27 -27 -28 -27 -26 -26 -26 -27 -28 -26 -30 -32 -31 -30 -29 -30 -32 -32 -35 -33 -33 -28 -32 -34 -25 -28 -32 -31 -31 -32 -31 -32 -32
-20 -19 -18 -17 -16 -17 -18 -18 -18 -16 -17 -15 -15 -14 -13 -13 -13 -13 -13 -13 -13 -12 -13 -13 -12 -12 -11 -8 -8 -7 -8 -12 -17 -19 -20 -20 -20 -20 -22 -23 -25 -24 -24 -24 -25 -25 -26 -26 -26 -26 -26 -27 -28 -29 -29 -28 -27 -27 -26 -28 -27 -29 -29 -32 -31 -31 -30 -31 -34 -32 -36 -34 -34 -33 -29 -23 -33 -33 -33 -34 -34 -34 -34 -34 -34
-19 -19 -19 -18 -19 -19 -19 -19 -18 -19 -18 -17 -15 -14 -13 -14 -16 -15 -15 -14 -14 -13 -13 -14 -13 -13 -13 -11 -11 -11 -11 -14 -15 -17 -20 -21 -22 -22 -22 -21 -22 -23 -25 -25 -25 -23 -22 -23 -26 -27 -25 -25 -25 -25 -23 -24 -26 -27 -27 -29 -27 -28 -30 -33 -33 -32 -33 -32 -32 -33 -32 -30 -29 -33 -34 -35 -36 -34 -34 -34 -35 -35 -34 -35 -34
-21 -20 -19 -19 -19 -20 -19 -20 -19 -18 -17 -16 -16 -16 -16 -17 -17 -18 -17 -17 -16 -15 -14 -14 -13 -13 -13 -13 -13 -15 -15 -16 -17 -17 -19 -21 -22 -22 -21 -22 -25 -27 -28 -29 -28 -26 -23 -24 -27 -30 -30 -30 -29 -29 -28 -27 -25 -26 -28 -27 -29 -30 -31 -30 -30 -32 -31 -31 -31 -30 -31 -34 -33 -33 -33 -35 -35 -35 -37 -36 -37 -37 -39 -39 -39
-24 -22 -21 -22 -22 -22 -22 -20 -18 -18 -18 -18 -22 -20 -19 -19 -19 -19 -18 -18 -17 -16 -15 -14 -14 -14 -14 -14 -14 -15 -16 -16 -17 -18 -19 -20 -23 -23 -24 -25 -25 -26 -28 -29 -29 -28 -26 -26 -27 -28 -30 -33 -33 -32 -32 -31 -30 -25 -25 -26 -27 -28 -29 -30 -30 -32 -30 -30 -30 -31 -34 -31 -34 -35 -35 -37 -36 -36 -36 -37 -36 -31 -35 -37 -37
-23 -23 -22 -22 -22 -21 -21 -22 -19 -21 -22 -22 -22 -22 -22 -22 -22 -21 -19 -19 -18 -18 -17 -16 -15 -15 -15 -14 -14 -16 -17 -18 -17 -17 -19 -21 -22 -24 -26 -25 -25 -26 -27 -27 -29 -28 -26 -26 -26 -27 -29 -31 -33 -35 -34 -33 -33 -30 -30 -29 -25 -26 -28 -30 -33 -32 -30 -30 -30 -32 -32 -34 -37 -34 -33 -35 -37 -38 -39 -39 -38 -37 -37 -37 -39
-26 -25 -24 -23 -23 -20 -20 -21 -24 -23 -24 -23 -22 -22 -22 -22 -21 -20 -19 -19 -19 -19 -19 -18 -17 -16 -15 -15 -15 -15 -16 -17 -18 -18 -18 -19 -22 -23 -25 -25 -26 -27 -28 -29 -28 -25 -27 -27 -27 -27 -28 -31 -32 -32 -33 -35 -34 -34 -33 -31 -30 -30 -32 -34 -31 -31 -31 -31 -30 -31 -32 -32 -34 -35 -34 -35 -36 -36 -36 -37 -36 -37 -38 -37 -37
-26 -25 -25 -22 -22 -23 -24 -26 -25 -22 -24 -24 -23 -22 -22 -22 -22 -21 -21 -21 -21 -21 -21 -21 -20 -18 -17 -16 -15 -15 -16 -16 -17 -18 -19 -21 -22 -23 -23 -24 -23 -24 -26 -28 -29 -28 -28 -28 -28 -28 -28 -29 -30 -32 -33 -34 -34 -34 -35 -34 -32 -31 -31 -31 -35 -34 -33 -33 -32 -33 -32 -32 -35 -34 -36 -34 -37 -35 -35 -36 -36 -37 -37 -36 -35
-26 -26 -25 -23 -23 -24 -26 -26 -24 -26 -26 -26 -25 -25 -24 -25 -24 -24 -23 -22 -22 -21 -22 -22 -22 -21 -19 -17 -16 -16 -16 -17 -16 -17 -17 -18 -21 -21 -21 -22 -24 -24 -26 -27 -28 -29 -28 -29 -28 -28 -28 -29 -29 -30 -31 -34 -34 -33 -34 -35 -30 -29 -30 -31 -34 -34 -32 -33 -34 -33 -35 -34 -35 -36 -34 -36 -35 -37 -37 -38 -37 -35 -36 -36 -36
-26 -24 -24 -24 -25 -26 -27 -27 -28 -28 -27 -27 -28 -28 -27 -27 -27 -26 -25 -24 -23 -22 -22 -22 -23 -24 -24 -21 -19 -17 -17 -17 -17 -17 -17 -17 -18 -18 -19 -21 -22 -23 -23 -25 -25 -27 -29 -30 -29 -29 -30 -31 -30 -31 -31 -32 -34 -31 -35 -32 -29 -29 -30 -30 -31 -31 -32 -35 -32 -33 -33 -34 -35 -35 -36 -35 -37 -37 -37 -38 -37 -35 -37 -39 -38
-25 -24 -25 -26 -28 -28 -29 -30 -31 -30 -30 -29 -30 -31 -30 -31 -30 -28 -27 -26 -25 -24 -23 -23 -24 -25 -25 -25 -23 -22 -19 -18 -17 -18 -18 -18 -18 -18 -19 -20 -21 -21 -23 -23 -24 -26 -28 -29 -29 -29 -30 -30 -31 -31 -33 -31 -34 -33 -30 -29 -29 -29 -29 -29 -30 -30 -31 -32 -35 -33 -33 -34 -36 -36 -38 -39 -38 -38 -37 -36 -37 -38 -39 -38 -37